Location: Pcim
(49.7500°N, 19.9670°E)
Time: 20:44:02
(UTC+02:00)

MOZHAYETS 4 - Pass Details

Date: 24 April 2024
Orbit: 652 x 670 km, 98.3° (Epoch: 20 May)

Event Time Altitude Azimuth Distance (km) Brightness Sun altitude
Rises 04:03:51 0° 173° (S) 3,005 10.8 -12.8°
Reaches altitude 10° 04:06:05 10° 177° (S) 2,097 9.9 -12.5°
Maximum altitude 04:10:38 62° 258° (WSW) 761 7.7 -11.9°
Drops below altitude 10° 04:15:13 10° 340° (NNW) 2,113 10.5 -11.3°
Sets 04:17:29 0° 343° (NNW) 3,031 11.4 -11.0°
